Location: Unspecified
(0.0000°N, 0.0000°E)
Time: 02:29:31
(UTC+00:00)

X-37B - Pass Details

Date: 04 March 2021
Orbit: 383 x 391 km, 45.0° (Epoch: 10 February)

Event Time Altitude Azimuth Distance (km) Brightness Sun altitude
Rises 19:27:45 0° 228° (SW) 2,272 5.4 -18.9°
Reaches altitude 10° 19:29:51 10° 232° (SW) 1,416 4.3 -19.4°
Maximum altitude 19:32:59 58° 312° (NW) 456 1.0 -20.2°
Enters shadow 19:33:13 56° 335° (NNW) 467 1.0 -20.3°
